Zurück zum Katalog

ATLAS 5 CENTAUR DEB

LostHEO
NORAD 45474·DEBRIS·🇺🇸 United States

Gestartet Oct 17, 2018 von Cape Canaveral Space Force Station

Loading…

Nächste Überflüge (nächste 24 Stunden)

TLE

VeraltetSource: Space-Track

Epoche: Jun 19, 2026, 02:13 UTC

1 45474U 18079BW  26170.09297731 -.00000115  00000-0  00000-0 0  9991
2 45474  13.0572  62.3698 4455126 254.7970  52.9636  1.74179555 43023

Verfolge ATLAS 5 CENTAUR DEB in Echtzeit mit AllMySat

Download on the App Store